#timestamp,LO_Frequency,Hit,StdDev 
1512936015.3,286046992.8,N
1512936035.1,286046994.2,N
1512936055.9,286046987.1,N
1512936075.7,286046983.8,Y
1512936095.5,286046988.3,P
1512936115.4,286046983.4,P
1512936135.2,286046983.5,P
1512936155.0,286046983.3,Y
1512936155.9,286046983.3,P
1512936175.8,286046996.4,N
1512936195.6,286047002.4,N
1512936215.4,286047000.6,N
1512936235.3,286047001.0,N
1512936255.1,286047002.7,N
1512936256.0,286047002.7,N
1512936275.8,286047002.4,N
1512936295.7,286046999.1,N
1512936315.5,286046993.6,N
1512936335.3,286046992.3,N
1512936355.1,286046992.5,N
1512936375.9,286046983.8,N
1512936395.7,286046983.0,N
1512936415.5,286046983.8,N
1512936435.4,286046985.5,N
1512936455.2,286046985.8,N
1512936475.0,286046983.3,N
1512936475.9,286046983.3,N
1512936495.8,286046980.5,N
1512936515.6,286046979.3,N
1512936535.4,286046978.9,N
1512936555.3,286046980.9,N
1512936575.1,286046978.6,N
1512936576.0,286046978.6,N
1512936595.8,286046978.3,N
1512936615.7,286046974.9,N
1512936635.5,286046975.0,N
1512936655.3,286046972.0,Y
1512936675.2,286046982.9,P
1512936695.9,286046983.4,P
1512936715.7,286046979.3,P
1512936735.6,286046977.6,Y
1512936755.4,286046995.2,P
1512936775.2,286046995.3,N
1512936795.1,286046995.7,N
1512936796.0,286046995.7,N
1512936815.8,286046997.6,N
1512936835.6,286047001.0,N
1512936855.4,286047001.1,N
1512936875.3,286046998.1,N
1512936895.1,286047000.7,N
1512936915.8,286046997.3,N
1512936935.7,286046990.1,N
1512936955.5,286046990.0,N
1512936975.3,286046984.8,Y
1512936995.2,286046982.4,P
1512937015.0,286046980.2,P
1512937015.9,286046980.2,N
1512937035.7,286046977.6,Y
1512937055.6,286046993.9,P
1512937075.4,286046993.5,N
1512937095.2,286046994.3,N
1512937115.1,286046987.1,Y
1512937116.0,286046987.1,P
1512937135.8,286046993.2,P
1512937155.6,286046990.8,P
1512937175.5,286046990.9,Y
1512937195.3,286046995.3,P
1512937215.1,286046994.3,N
1512937235.9,286046989.1,P
1512937255.7,286046986.9,Y
1512937275.6,286046995.4,P
1512937295.4,286046993.7,P
1512937315.2,286046996.1,P
1512937335.1,286046995.1,Y
1512937336.0,286046995.1,P
1512937355.8,286047004.3,P
1512937375.6,286046999.8,N
1512937395.4,286047000.5,N
1512937415.3,286047004.6,N
1512937435.1,286047005.4,N
1512937455.8,286047005.4,N
1512937475.7,286047012.2,N
1512937495.5,286047015.2,N
1512937515.3,286047018.6,N
1512937535.2,286047020.2,N
1512937555.9,286047021.6,N
1512937575.7,286047022.0,N
1512937595.6,286047023.4,N
1512937615.4,286047021.0,N
1512937635.2,286047022.7,N
1512937655.0,286047021.6,N
1512937656.0,286047021.6,N
1512937675.8,286047021.0,N
1512937695.6,286047022.4,N
1512937715.4,286047023.6,N
1512937735.3,286047021.1,N
1512937755.1,286047018.9,N
1512937775.8,286047020.8,N
1512937795.7,286047023.2,N
1512937815.5,286047026.6,N
1512937835.3,286047028.4,N
1512937855.2,286047028.6,N
1512937875.9,286047028.6,N
1512937895.7,286047025.4,N
1512937915.6,286047024.6,N
1512937935.4,286047021.2,N
1512937955.2,286047022.3,N
1512937975.1,286047024.2,Y
1512937976.0,286047024.2,P
1512937995.8,286047007.5,P
1512938015.6,286047006.1,N
1512938035.5,286047010.0,N
1512938055.3,286047009.3,N
1512938075.1,286047010.4,N
1512938095.8,286047011.4,N
1512938115.7,286047012.6,N
1512938135.5,286047016.7,Y
1512938155.3,286047003.5,P
1512938175.2,286047003.8,N
1512938195.0,286047000.0,N
1512938195.9,286047000.0,N
1512938215.7,286046999.7,N
1512938235.6,286047000.6,N
1512938255.4,286046999.8,N
1512938275.2,286047003.0,N
1512938295.1,286047006.6,N
1512938296.0,286047006.6,N
1512938315.8,286047010.2,N
1512938335.6,286047008.4,N
1512938355.5,286047006.8,N
1512938375.3,286047004.7,N
1512938395.1,286047004.6,N
1512938415.9,286047008.7,N
1512938435.7,286047011.1,N
1512938455.5,286047016.2,Y
1512938475.4,286047012.6,P
1512938495.2,286047012.8,P
1512938515.0,286047010.5,N
1512938515.9,286047010.5,Y
1512938535.8,286046998.0,P
1512938555.6,286046993.6,N
1512938575.4,286046994.4,N
1512938595.3,286046993.4,N
1512938615.1,286046995.1,N
1512938616.0,286046995.1,N
1512938635.8,286046996.1,N
1512938655.6,286046991.7,N
1512938675.5,286046987.9,N
1512938695.3,286046986.1,N
1512938715.1,286046991.0,N
1512938735.9,286046989.7,N
1512938755.7,286046993.2,N
1512938775.5,286046987.2,N
1512938795.4,286046987.3,N
1512938815.2,286046987.5,N
1512938835.0,286046987.7,N
1512938835.9,286046987.7,N
1512938855.8,286046988.2,N
1512938875.6,286046988.1,N
1512938895.4,286046991.4,N
1512938915.2,286046991.0,N
1512938935.1,286046989.4,N
1512938936.0,286046989.4,N
1512938955.8,286046993.0,N
1512938975.6,286046993.3,N
1512938995.5,286046990.3,N
1512939015.3,286046991.9,N
1512939035.1,286046992.8,N
1512939055.9,286046992.8,N
1512939075.7,286046990.6,Y
1512939095.5,286046997.7,P
1512939115.4,286046995.7,N
1512939135.2,286046991.8,N
1512939155.0,286046989.1,Y
1512939155.9,286046989.1,P
1512939175.8,286046993.0,N
1512939195.6,286046991.5,P
1512939215.4,286046992.3,Y
1512939235.3,286046998.8,P
1512939255.1,286046995.5,N
1512939275.8,286047000.5,N
1512939295.7,286047005.8,N
1512939315.5,286047004.0,N
1512939335.3,286047005.8,N
1512939355.2,286047006.8,N
1512939375.9,286047004.9,N
1512939395.7,286047008.5,N
1512939415.6,286047005.9,N
1512939435.4,286047005.7,N
1512939455.2,286047008.6,N
1512939475.0,286047007.8,N
1512939476.0,286047007.8,N
1512939495.8,286047008.9,N
1512939515.6,286047009.5,N
1512939535.4,286047013.1,N
1512939555.3,286047014.3,N
1512939575.1,286047020.0,Y
1512939595.8,286047014.2,P
